When you browse on this site, cookies collect data to enhance your experience and personalize the content and advertising you see.
Visit our Privacy Policy to learn more. By continuing to use the site, you agree to this use of cookies and data.

Stündliche Wetter Szeged

Heute, 6 Juli, Montag

Zeit Temperatur Niederschläge Wind Luftdruck Luftfeuchtigkeit
00:00 +22°C° 0 mm 1 m/S 753 mmHg 74%
01:00 +21°C° 0 mm 1 m/S 753 mmHg 75%
02:00 +21°C° 0 mm 1 m/S 752 mmHg 76%
03:00 +21°C° 0 mm 1 m/S 752 mmHg 78%
04:00 +20°C° 0 mm 1 m/S 752 mmHg 80%
05:00 +20°C° 0 mm 0 m/S 752 mmHg 75%
06:00 +22°C° 0 mm 0 m/S 752 mmHg 71%
07:00 +23°C° 0 mm 0 m/S 752 mmHg 65%
08:00 +25°C° 0 mm 0 m/S 752 mmHg 59%
09:00 +28°C° 0 mm 1 m/S 751 mmHg 54%
10:00 +30°C° 0 mm 1 m/S 751 mmHg 49%
11:00 +30°C° 0 mm 1 m/S 751 mmHg 46%
12:00 +31°C° 0 mm 1 m/S 750 mmHg 44%
13:00 +32°C° 0 mm 1 m/S 750 mmHg 39%
14:00 +32°C° 0 mm 1 m/S 749 mmHg 39%
15:00 +32°C° 0 mm 1 m/S 749 mmHg 39%
16:00 +32°C° 0 mm 2 m/S 748 mmHg 40%
17:00 +31°C° 0 mm 2 m/S 748 mmHg 48%
18:00 +29°C° 0 mm 2 m/S 748 mmHg 55%
19:00 +27°C° 0 mm 2 m/S 748 mmHg 63%
20:00 +26°C° 0.3 mm 2 m/S 748 mmHg 66%
21:00 +25°C° 0.3 mm 3 m/S 749 mmHg 69%
22:00 +23°C° 0.3 mm 4 m/S 749 mmHg 72%
23:00 +22°C° 0.5 mm 5 m/S 749 mmHg 71%

Morgen, 7 Juli, Dienstag

Zeit Temperatur Niederschläge Wind Luftdruck Luftfeuchtigkeit
00:00 +21°C° 0.5 mm 6 m/S 750 mmHg 71%
01:00 +18°C° 0.5 mm 7 m/S 750 mmHg 70%
02:00 +18°C° 0.1 mm 7 m/S 751 mmHg 73%
03:00 +17°C° 0.1 mm 7 m/S 751 mmHg 75%
04:00 +17°C° 0.1 mm 8 m/S 752 mmHg 78%
05:00 +16°C° 0.1 mm 8 m/S 753 mmHg 79%
06:00 +15°C° 0.1 mm 8 m/S 753 mmHg 79%
07:00 +13°C° 0.1 mm 8 m/S 754 mmHg 80%
08:00 +15°C° 0 mm 7 m/S 755 mmHg 79%
09:00 +15°C° 0 mm 6 m/S 755 mmHg 78%
10:00 +15°C° 0 mm 5 m/S 755 mmHg 77%
11:00 +18°C° 0 mm 4 m/S 755 mmHg 70%
12:00 +19°C° 0 mm 4 m/S 755 mmHg 64%
13:00 +21°C° 0 mm 4 m/S 755 mmHg 57%
14:00 +22°C° 0 mm 3 m/S 755 mmHg 56%
15:00 +22°C° 0 mm 3 m/S 755 mmHg 54%
16:00 +23°C° 0 mm 2 m/S 755 mmHg 53%
17:00 +21°C° 0 mm 2 m/S 755 mmHg 57%
18:00 +21°C° 0 mm 2 m/S 755 mmHg 62%
19:00 +21°C° 0 mm 1 m/S 755 mmHg 67%
20:00 +19°C° 0 mm 1 m/S 755 mmHg 69%
21:00 +17°C° 0 mm 2 m/S 756 mmHg 71%
22:00 +16°C° 0 mm 2 m/S 756 mmHg 73%
23:00 +16°C° 0 mm 2 m/S 756 mmHg 74%

übermorgen, 8 Juli, Mittwoch

Zeit Temperatur Niederschläge Wind Luftdruck Luftfeuchtigkeit
00:00 +15°C° 0 mm 1 m/S 756 mmHg 75%
01:00 +15°C° 0 mm 1 m/S 756 mmHg 76%
02:00 +14°C° 0 mm 1 m/S 756 mmHg 77%
03:00 +14°C° 0 mm 1 m/S 756 mmHg 78%
04:00 +14°C° 0 mm 1 m/S 757 mmHg 79%
05:00 +15°C° 0 mm 1 m/S 757 mmHg 75%
06:00 +18°C° 0 mm 1 m/S 757 mmHg 70%
07:00 +18°C° 0 mm 2 m/S 757 mmHg 66%
08:00 +20°C° 0 mm 2 m/S 757 mmHg 60%
09:00 +21°C° 0 mm 2 m/S 757 mmHg 55%
10:00 +24°C° 0 mm 2 m/S 757 mmHg 49%
11:00 +25°C° 0 mm 2 m/S 757 mmHg 45%
12:00 +26°C° 0 mm 1 m/S 757 mmHg 41%
13:00 +27°C° 0 mm 1 m/S 756 mmHg 38%
14:00 +27°C° 0 mm 1 m/S 756 mmHg 37%
15:00 +27°C° 0 mm 1 m/S 756 mmHg 36%
16:00 +27°C° 0 mm 1 m/S 756 mmHg 35%
17:00 +26°C° 0 mm 1 m/S 756 mmHg 41%
18:00 +24°C° 0 mm 1 m/S 756 mmHg 46%
19:00 +21°C° 0 mm 0 m/S 756 mmHg 51%
20:00 +22°C° 0 mm 1 m/S 756 mmHg 53%
21:00 +21°C° 0 mm 1 m/S 756 mmHg 54%
22:00 +20°C° 0 mm 1 m/S 756 mmHg 56%
23:00 +19°C° 0 mm 1 m/S 756 mmHg 57%

9 Juli, Donnerstag

Zeit Temperatur Niederschläge Wind Luftdruck Luftfeuchtigkeit
00:00 +19°C° 0 mm 1 m/S 757 mmHg 59%
01:00 +18°C° 0 mm 1 m/S 757 mmHg 61%
02:00 +18°C° 0 mm 1 m/S 757 mmHg 62%
03:00 +18°C° 0 mm 1 m/S 757 mmHg 62%
04:00 +16°C° 0 mm 1 m/S 757 mmHg 63%
05:00 +19°C° 0 mm 1 m/S 757 mmHg 61%
06:00 +21°C° 0 mm 1 m/S 757 mmHg 58%
07:00 +23°C° 0 mm 1 m/S 758 mmHg 56%
08:00 +24°C° 0 mm 1 m/S 758 mmHg 52%
09:00 +26°C° 0 mm 1 m/S 758 mmHg 48%
10:00 +28°C° 0 mm 1 m/S 758 mmHg 45%
11:00 +29°C° 0 mm 1 m/S 758 mmHg 43%
12:00 +29°C° 0 mm 1 m/S 757 mmHg 42%
13:00 +30°C° 0 mm 1 m/S 757 mmHg 41%
14:00 +30°C° 0 mm 1 m/S 757 mmHg 41%
15:00 +30°C° 0 mm 1 m/S 757 mmHg 41%
16:00 +30°C° 0 mm 1 m/S 756 mmHg 41%
17:00 +29°C° 0 mm 1 m/S 756 mmHg 48%
18:00 +27°C° 0 mm 2 m/S 756 mmHg 55%
19:00 +25°C° 0 mm 2 m/S 756 mmHg 62%
20:00 +24°C° 0 mm 2 m/S 756 mmHg 64%
21:00 +23°C° 0 mm 2 m/S 756 mmHg 66%
22:00 +21°C° 0 mm 2 m/S 757 mmHg 68%
23:00 +21°C° 0 mm 2 m/S 756 mmHg 70%

10 Juli, Freitag

Zeit Temperatur Niederschläge Wind Luftdruck Luftfeuchtigkeit
00:00 +20°C° 0 mm 2 m/S 756 mmHg 71%
01:00 +20°C° 0 mm 2 m/S 756 mmHg 73%
02:00 +19°C° 0 mm 2 m/S 756 mmHg 75%
03:00 +19°C° 0 mm 2 m/S 756 mmHg 78%
04:00 +18°C° 0 mm 2 m/S 756 mmHg 81%
05:00 +20°C° 0 mm 2 m/S 756 mmHg 77%
06:00 +21°C° 0 mm 3 m/S 756 mmHg 73%
07:00 +24°C° 0 mm 3 m/S 756 mmHg 69%
08:00 +26°C° 0 mm 3 m/S 755 mmHg 63%
09:00 +28°C° 0 mm 4 m/S 755 mmHg 57%
10:00 +30°C° 0 mm 4 m/S 755 mmHg 50%
11:00 +30°C° 0 mm 5 m/S 755 mmHg 48%
12:00 +32°C° 0 mm 5 m/S 754 mmHg 46%
13:00 +33°C° 0 mm 6 m/S 754 mmHg 44%
14:00 +33°C° 0 mm 5 m/S 753 mmHg 45%
15:00 +33°C° 0 mm 5 m/S 753 mmHg 45%
16:00 +33°C° 0 mm 5 m/S 753 mmHg 46%
17:00 +30°C° 0 mm 5 m/S 752 mmHg 52%
18:00 +29°C° 0 mm 4 m/S 752 mmHg 59%
19:00 +27°C° 0 mm 3 m/S 752 mmHg 65%
20:00 +26°C° 0 mm 3 m/S 752 mmHg 64%
21:00 +25°C° 0 mm 4 m/S 752 mmHg 62%
22:00 +25°C° 0 mm 4 m/S 752 mmHg 61%
23:00 +23°C° 0 mm 4 m/S 752 mmHg 61%

11 Juli, Samstag

Zeit Temperatur Niederschläge Wind Luftdruck Luftfeuchtigkeit
00:00 +22°C° 0 mm 4 m/S 752 mmHg 62%
01:00 +22°C° 0 mm 3 m/S 753 mmHg 63%
02:00 +21°C° 0 mm 3 m/S 753 mmHg 65%
03:00 +21°C° 0 mm 2 m/S 753 mmHg 67%
04:00 +20°C° 0 mm 2 m/S 753 mmHg 70%
05:00 +22°C° 0 mm 3 m/S 753 mmHg 67%
06:00 +23°C° 0 mm 4 m/S 753 mmHg 64%
07:00 +26°C° 0 mm 5 m/S 754 mmHg 61%
08:00 +27°C° 0 mm 4 m/S 754 mmHg 58%
09:00 +28°C° 0 mm 4 m/S 754 mmHg 56%
10:00 +30°C° 0 mm 4 m/S 754 mmHg 53%
11:00 +30°C° 0 mm 4 m/S 754 mmHg 52%
12:00 +32°C° 0 mm 4 m/S 754 mmHg 52%
13:00 +32°C° 0 mm 5 m/S 754 mmHg 52%
14:00 +28°C° 0.6 mm 6 m/S 755 mmHg 58%
15:00 +26°C° 0.6 mm 8 m/S 755 mmHg 64%
16:00 +22°C° 0.6 mm 9 m/S 755 mmHg 71%
17:00 +21°C° 0.2 mm 8 m/S 755 mmHg 73%
18:00 +20°C° 0.2 mm 6 m/S 756 mmHg 76%
19:00 +19°C° 0.2 mm 5 m/S 756 mmHg 78%
20:00 +17°C° 0 mm 5 m/S 757 mmHg 79%
21:00 +17°C° 0 mm 5 m/S 757 mmHg 80%
22:00 +16°C° 0 mm 5 m/S 758 mmHg 81%
23:00 +17°C° 0 mm 4 m/S 758 mmHg 79%
Mehr zeigen